Home   Weather   Porto Novo   Past weeks
Flag for Benin

Past Weather in Porto Novo, Benin — Yesterday and Last 2 Weeks

Now
81 °F

Passing clouds.


Feels Like: 87 °F
Forecast: 85 / 75 °F
Wind: 13 mph from Southwest

Location: Cotonou Airport

Current Time: Oct 15, 2019 at 1:09:58 am

Latest Report: Oct 15, 2019 at 12:00 am


Visibility: N/A

Pressure: 29.86 "Hg

Humidity: 89%

Dew Point: 77 °F

Location of Porto NovoLocation

Past Weather in Porto Novo — Graph

°F

Porto Novo Temperature Yesterday

Maximum temperature yesterday: 84 °F (at 5:00 pm)
Minimum temperature yesterday: 77 °F (at 7:00 am)
Average temperature yesterday: 80 °F

High & Low Weather Summary for the Past Weeks

 TemperatureHumidityPressure
High86 °F (Oct 3, 2:00 pm)100% (Oct 1, 2:00 am)29.98 "Hg (Oct 1, 2:00 am)
Low73 °F (Oct 4, 10:26 am)70% (Oct 8, 7:00 pm)29.74 "Hg (Oct 9, 5:00 pm)
Average79 °F90%29.85 "Hg
* Reported Sep 29 11:00 pm — Oct 14 11:00 pm, Porto Novo. Weather by CustomWeather, © 2019

Note: Actual official high and low records may vary slightly from our data, if they occured in-between our weather recording intervals... More about our weather records

Advertising

Porto Novo Weather History for the Previous 24 Hours

Scroll right to see more
 ConditionsComfort  
Time TempWeatherWind HumidityBarometerVisibility
11:00 pm
Mon, Oct 14
81 °FPassing clouds.12 mph89%29.89 "HgN/A
10:00 pm81 °FPassing clouds.10 mph94%29.89 "HgN/A
9:00 pm81 °FPassing clouds.13 mph89%29.86 "HgN/A
8:00 pm81 °FPassing clouds.13 mph89%29.83 "HgN/A
7:00 pm81 °FPassing clouds.14 mph89%29.80 "HgN/A
6:00 pm82 °FScattered clouds.13 mph84%29.80 "HgN/A
5:00 pm84 °FScattered clouds.14 mph84%29.80 "HgN/A
4:00 pm82 °FScattered clouds.14 mph84%29.80 "HgN/A
3:00 pm82 °FScattered clouds.8 mph84%29.83 "Hg5 mi
2:00 pm82 °FScattered clouds.9 mph84%29.83 "Hg5 mi
1:00 pm81 °FScattered clouds.13 mph89%29.83 "Hg5 mi
12:00 pm82 °FScattered clouds.10 mph84%29.86 "Hg5 mi
11:00 am81 °FPartly sunny.6 mph84%29.92 "Hg5 mi
10:00 am79 °FPartly sunny.8 mph89%29.92 "Hg5 mi
9:28 am81 °FPartly sunny.8 mph89%29.92 "Hg5 mi
9:00 am81 °FScattered clouds.8 mph89%29.89 "Hg5 mi
8:00 am79 °FScattered clouds.8 mph94%29.89 "Hg5 mi
7:00 am77 °FScattered clouds.5 mph94%29.86 "Hg5 mi
6:00 am79 °FPassing clouds.7 mph89%29.86 "HgN/A
5:00 am79 °FPassing clouds.9 mph89%29.83 "HgN/A
4:00 am79 °FPassing clouds.8 mph94%29.83 "HgN/A
3:51 am79 °FPassing clouds.8 mph94%29.86 "HgN/A
3:00 am79 °FPassing clouds.9 mph94%29.83 "HgN/A
2:00 am79 °FPassing clouds.7 mph89%29.86 "HgN/A
1:00 am79 °FPassing clouds.8 mph94%29.86 "HgN/A
Weather by CustomWeather, © 2019

See weather overview